Weather History for KFOK - December, 2012

Change the Weather History Date:

Tuesday, December 4, 2012

  Actual Average Record
Temperature  
Mean Temperature 44 °F -  
Max Temperature 59 °F 46 °F 70 °F (1998)
Min Temperature 28 °F 27 °F 6 °F (2000)
Degree Days  
Heating Degree Days 22    
Moisture  
Dew Point 50 °F    
Average Humidity 92    
Maximum Humidity 100    
Minimum Humidity 88    
Precipitation  
Precipitation 0.06 in - - ()
Sea Level Pressure  
Sea Level Pressure 30.22 in    
Wind  
Wind Speed 4 mph (South)    
Max Wind Speed 12 mph    
Max Gust Speed 16 mph    
Visibility 6 miles    
Events Rain    
Averages and records for this station are not official NWS values.
T = Trace of Precipitation, MM = Missing Value Source: NWS Daily Summary

Daily Weather History Graph

Daily Weather History Graph

Search for Another Location

Airport or City:

Trip Planner

Search our weather history database for the weather conditions in past years. The results will help you decide how hot, cold, wet, or windy it might be!

Date:

Astronomy

Dec. 04, 2012 Rise Set
Actual Time 6:58 AM EST 4:22 PM EST
Civil Twilight 6:28 AM EST 4:53 PM EST
Nautical Twilight 5:54 AM EST 5:27 PM EST
Astronomical Twilight 5:20 AM EST 6:00 PM EST
Moon 10:08 PM EST (12/4) 10:50 AM EST (12/4)
Length of Visible Light 10h 25m
Length of Day
9h 23m
Waning Gibbous, 69% of the Moon is Illuminated
Dec 4
Waning Gibbous
Dec 6
Last Quarter
Dec 13
New
Dec 20
First Quarter
Dec 28
Full

Hourly Weather History & Observations

Time (EST) Temp. Dew Point Humidity Pressure Visibility Wind Dir Wind Speed Gust Speed Precip Events Conditions
1:53 AM 28.9 °F 26.1 °F 89% 30.30 in 10.0 mi Calm Calm - N/A   Clear
2:53 AM 30.0 °F 27.0 °F 88% 30.30 in 10.0 mi Calm Calm - N/A   Clear
3:53 AM 30.9 °F 28.0 °F 89% 30.30 in 10.0 mi Calm Calm - N/A   Scattered Clouds
4:53 AM 32.0 °F 30.0 °F 92% 30.30 in 10.0 mi Calm Calm - N/A   Partly Cloudy
6:53 AM 42.1 °F 41.0 °F 96% 30.31 in 9.0 mi Calm Calm - N/A   Overcast
7:53 AM 48.0 °F 46.0 °F 93% 30.31 in 7.0 mi SE 3.5 mph - 0.00 in   Overcast
8:44 AM 51.8 °F 48.2 °F 88% 30.31 in 2.5 mi Calm Calm - 0.02 in Rain Light Rain
8:53 AM 51.1 °F 48.9 °F 92% 30.32 in 3.0 mi Calm Calm - 0.02 in Rain Light Rain
9:04 AM 51.8 °F 48.2 °F 88% 30.31 in 2.5 mi SE 3.5 mph - 0.00 in Rain Light Rain
9:26 AM 53.6 °F 50.0 °F 88% 30.31 in 3.0 mi SSE 4.6 mph - 0.01 in   Overcast
9:53 AM 54.0 °F 52.0 °F 93% 30.31 in 3.0 mi SSE 5.8 mph - 0.01 in   Overcast
10:02 AM 53.6 °F 51.8 °F 94% 30.31 in 2.0 mi SSE 5.8 mph - 0.01 in Rain Light Rain
10:43 AM 55.4 °F 53.6 °F 94% 30.29 in 3.0 mi South 6.9 mph - 0.02 in Rain Light Rain
10:53 AM 55.9 °F 53.1 °F 90% 30.29 in 4.0 mi SSE 8.1 mph - 0.02 in   Overcast
11:53 AM 55.9 °F 54.0 °F 93% 30.26 in 5.0 mi South 9.2 mph - 0.00 in   Overcast
12:53 PM 57.9 °F 55.0 °F 90% 30.24 in 6.0 mi South 11.5 mph 16.1 mph N/A   Overcast
1:53 PM 57.0 °F 54.0 °F 89% 30.22 in 6.0 mi South 8.1 mph - N/A   Mostly Cloudy
2:53 PM 59.0 °F 55.9 °F 90% 30.20 in 8.0 mi South 6.9 mph - N/A   Scattered Clouds
3:19 PM 57.2 °F 55.4 °F 94% 30.20 in 7.0 mi South 5.8 mph - N/A   Mostly Cloudy
3:53 PM 55.9 °F 54.0 °F 93% 30.19 in 5.0 mi South 6.9 mph - N/A   Mostly Cloudy
4:00 PM 55.4 °F 53.6 °F 94% 30.19 in 4.0 mi South 8.1 mph - N/A   Scattered Clouds
4:08 PM 55.4 °F 53.6 °F 94% 30.18 in 4.0 mi South 8.1 mph - N/A   Mostly Cloudy
4:53 PM 55.9 °F 54.0 °F 93% 30.18 in 5.0 mi South 8.1 mph - N/A   Mostly Cloudy
5:41 PM 55.4 °F 55.4 °F 100% 30.16 in 5.0 mi South 8.1 mph - N/A   Mostly Cloudy
5:53 PM 55.9 °F 55.0 °F 97% 30.16 in 5.0 mi South 6.9 mph - N/A   Scattered Clouds
6:53 PM 57.0 °F 55.0 °F 93% 30.15 in 7.0 mi South 6.9 mph - N/A   Mostly Cloudy
7:35 PM 55.4 °F 53.6 °F 94% 30.14 in 7.0 mi South 8.1 mph - N/A   Partly Cloudy
7:53 PM 55.9 °F 54.0 °F 93% 30.13 in 7.0 mi South 9.2 mph - N/A   Mostly Cloudy
8:53 PM 57.0 °F 54.0 °F 89% 30.11 in 7.0 mi South 8.1 mph - 0.01 in   Mostly Cloudy
9:25 PM 55.4 °F 53.6 °F 94% 30.09 in 6.0 mi South 6.9 mph - N/A   Mostly Cloudy
9:53 PM 55.9 °F 55.0 °F 97% 30.09 in 6.0 mi SSW 8.1 mph - N/A   Overcast
10:43 PM 55.4 °F 53.6 °F 94% 30.07 in 6.0 mi SSW 5.8 mph - N/A   Scattered Clouds
10:53 PM 55.0 °F 54.0 °F 96% 30.07 in 6.0 mi South 5.8 mph - N/A   Scattered Clouds
11:53 PM 55.0 °F 53.1 °F 93% 30.04 in 7.0 mi SSW 9.2 mph - N/A   Clear